Location: Hains Lake
(37.8540°N, 99.8578°W)
Time: 22:01:42
(UTC+00:00)

COSMO-SKYMED 1 - Pass Details

Date: 11 December 2019
Orbit: 621 x 623 km, 97.9° (Epoch: 26 January)

Event Time Altitude Azimuth Distance (km) Brightness Sun altitude
Rises 12:25:55 0° 185° (S) 2,888 6.2 -15.1°
Reaches altitude 10° 12:28:13 10° 193° (SSW) 1,986 5.2 -14.7°
Maximum altitude 12:32:15 38° 262° (W) 954 3.1 -13.9°
Enters shadow 12:35:45 13° 327° (NNW) 1,791 4.5 -13.3°
